Regional Weather Roundup
Issued by NWS Goodland, KS

Home | Current Version | Previous Version | Graphics & Text | Print | Product List | Glossary On
Versions: 1 2 3 4 5 6 7 8 9 10 11 12 13 14 15 16 17 18 19 20 21 22 23 24 25 26 27 28 29 30 31 32 33 34 35 36 37 38 39 40 41 42 43 44 45 46 47 48 49 50
750
ASUS43 KGLD 240859
RWRGLD

GOODLAND FORECAST AREA HOURLY WEATHER ROUNDUP
NATIONAL WEATHER SERVICE GOODLAND KS
300 AM MDT MON JUL 24 2017

...OFFICIAL OBSERVATIONS...

CITY           SKY/WX    TMP DP  RH WIND       PRES   REMARKS
GOODLAND KS    CLEAR     68  58  70 SW7       30.07F
HILL CITY KS   CLEAR     68  66  93 E3        30.01F
IMPERIAL NEB   CLEAR     68  54  60 SW7       30.03F
MCCOOK NEB     CLEAR     69  66  90 SE8       30.01F
AKRON CO       NOT AVBL
BURLINGTON CO  NOT AVBL
LIMON CO       CLEAR     61  59  93 SE7       30.17F
$$

...UNOFFICIAL OBSERVATIONS...

CITY           SKY/WX    TMP DP  RH WIND       PRES   REMARKS
LENORA KS        N/A     69  32  25 MISG        N/A
NORTON KS      CLEAR     68  63  83 E7        30.01S
SHARON SPRINGS   N/A     66  59  79 S8          N/A
TRENTON NEB      N/A     66  32  28 S5          N/A
KIT CARSON CO    N/A     62  55  78 CALM        N/A
YUMA CO        FAIR      64  50  59 S9        30.07F
$$




USA.gov is the U.S. government's official web portal to all federal, state and local government web resources and services.